Regional Weather Roundup
Issued by NWS

Home | Current Version | Previous Version | Graphics & Text | Print | Product List | Glossary On
Versions: 1 2 3 4 5 6 7 8 9 10 11 12 13 14 15 16 17 18 19 20 21 22 23 24 25 26 27 28 29 30 31 32 33 34 35 36 37 38 39 40 41 42 43 44 45 46 47 48 49 50
000
ASUS45 KABQ 180301
RWRNM
NEW MEXICO REGIONAL WEATHER ROUNDUP
NATIONAL WEATHER SERVICE ALBUQUERQUE NM
900 PM MDT TUE OCT 17 2017

NOTE: "FAIR" MEANS FEW OR NO CLOUDS BELOW 12,000 FEET AGL WITH NO
       SIGNIFICANT WEATHER OR OBSTRUCTIONS TO VISION.

      THIS PRODUCT IS RELEASED AS TWO VERSIONS.  ONE VERSION NEAR
      THE TOP OF THE HOUR CONTAINING PRELIMINARY DATA FROM ALBUQUERQUE
      AND OTHER STATIONS.  A FINAL VERSION WITH ADDITIONAL DATA IS
      ISSUED ABOUT 10 MINUTES AFTER THE HOUR.

NMZ501-503-504-510>518-180400-
NORTHWEST PLATEAU/NORTHCENTRAL MOUNTAINS

CITY           SKY/WX    TMP DP  RH WIND       PRES   REMARKS
FARMINGTON     FAIR      49   7  18 NE3       30.21S
LOS ALAMOS     FAIR      62  16  16 W6        30.32F
SANTA FE       FAIR      46  31  55 NE12      30.26S
TAOS           FAIR      44  19  36 E9        30.34R
ANGEL FIRE     FAIR      37  19  48 CALM      30.38R

$$
NMZ402-403-502-505>509-180400-
WESTCENTRAL MOUNTAINS/SOUTHWEST MOUNTAINS

CITY           SKY/WX    TMP DP  RH WIND       PRES   REMARKS
GALLUP         FAIR      48  12  23 CALM      30.29S
GRANTS         FAIR      46  15  28 CALM      30.30F
SILVER CITY    CLOUDY    61  41  46 NE3       30.23S

$$
NMZ407-409-411-412-180400-
SOUTHERN DESERTS

CITY           SKY/WX    TMP DP  RH WIND       PRES   REMARKS
DEMING         FAIR      67  44  43 SE5       30.16S
LAS CRUCES     FAIR      67  39  35 S6        30.19R
ALAMOGORDO     FAIR      63  37  39 SE5       30.18S
T OR C         FAIR      71  38  29 S9        30.17F

$$
NMZ519>523-180400-
CENTRAL VALLEYS/CENTRAL HIGHLANDS

CITY           SKY/WX    TMP DP  RH WIND       PRES   REMARKS
ALBUQUERQUE    FAIR      62  22  21 SE5       30.22S
DOUBLE EAGLE   CLEAR     52  25  35 CALM      30.25S
MORIARTY ARPT  FAIR      48  26  43 NE3       30.27S
CLINES CORNERS FAIR      50  22  33 W9        30.29S
BELEN          FAIR      60  31  32 CALM      30.22S
SOCORRO        FAIR      64  32  30 CALM      30.19S

$$
NMZ524>526-539-540-180400-
SOUTHCENTRAL MOUNTAINS

CITY           SKY/WX    TMP DP  RH WIND       PRES   REMARKS
RUIDOSO        FAIR      54  28  37 SW9       30.33S

$$
NMZ527>531-180400-
NORTHEAST HIGHLANDS/NORTHEAST PLAINS

CITY           SKY/WX    TMP DP  RH WIND       PRES   REMARKS
LAS VEGAS      FAIR      48  32  53 N10       30.25R
RATON          FAIR      51  24  34 CALM      30.20S
CLAYTON        FAIR      55  30  38 W9        30.13S HAZE

$$
NMZ532>537-180400-
EASTCENTRAL PLAINS

CITY           SKY/WX    TMP DP  RH WIND       PRES   REMARKS
SANTA ROSA     FAIR      54  38  55 SE8       30.14S
TUCUMCARI      FAIR      62  43  49 SW12      30.08R
CANNON AFB     FAIR      59  39  47 SW7       30.16S
CLOVIS AIRPORT FAIR      54  42  64 SW10      30.15S

$$
NMZ028-029-538-180400-
SOUTHEAST PLAINS

CITY           SKY/WX    TMP DP  RH WIND       PRES   REMARKS
ROSWELL        FAIR      64  46  52 S12       30.12S
ARTESIA        FAIR      64  46  52 S9        30.13S
CARLSBAD       FAIR      63  51  65 S7        30.12R
HOBBS          FAIR      57  45  62 S8        30.16S


$$




USA.gov is the U.S. government's official web portal to all federal, state and local government web resources and services.